QPF
0.10 0.12 0.15 0.19 0.17 0.19 0.21 0.24 0.24 0.24 0.24 0.24 0.23 0.22 0.21 0.20 0.18 0.17 0.17 0.18 0.21 0.22 0.21 0.19 0.18 0.16 0.15 0.15 0.17 0.17 0.17 0.16 0.17 0.17 0.17 0.16 0.16 0.15 0.15 0.13 0.12 0.09 0.05 0.02 0.01 0.00 0.00 0.00 0.00 0.00 0.00 0.00 0.00 0.00 0.00 0.00 0.00 0.00 0.00 0.00 0.00 0.00 0.00 0.00 0.00 0.00 0.00 0.00 0.00
0.08 0.10 0.13 0.18 0.18 0.19 0.21 0.24 0.23 0.25 0.28 0.27 0.29 0.29 0.28 0.27 0.28 0.28 0.29 0.30 0.31 0.31 0.30 0.28 0.26 0.24 0.23 0.23 0.22 0.21 0.22 0.28 0.27 0.25 0.24 0.20 0.19 0.17 0.16 0.16 0.15 0.12 0.08 0.05 0.02 0.01 0.00 0.00 0.02 0.02 0.01 0.00 0.00 0.00 0.00 0.00 0.00 0.00 0.00 0.00 0.00 0.00 0.00 0.00 0.00 0.00 0.00 0.00 0.00
0.08 0.09 0.11 0.14 0.14 0.14 0.16 0.19 0.23 0.30 0.37 0.41 0.41 0.41 0.42 0.45 0.48 0.48 0.48 0.49 0.46 0.46 0.46 0.44 0.42 0.40 0.38 0.37 0.34 0.43 0.52 0.50 0.47 0.44 0.41 0.34 0.29 0.24 0.21 0.19 0.17 0.14 0.10 0.08 0.06 0.04 0.04 0.03 0.10 0.11 0.08 0.06 0.03 0.02 0.01 0.00 0.00 0.00 0.00 0.00 0.00 0.00 0.00 0.00 0.00 0.00 0.00 0.00 0.00
0.08 0.09 0.10 0.13 0.16 0.20 0.25 0.28 0.33 0.41 0.49 0.54 0.55 0.56 0.59 0.65 0.66 0.65 0.64 0.67 0.64 0.67 0.70 0.68 0.67 0.65 0.63 0.61 0.71 0.75 0.75 0.74 0.72 0.69 0.66 0.62 0.50 0.41 0.34 0.29 0.25 0.20 0.18 0.17 0.17 0.17 0.20 0.30 0.29 0.27 0.24 0.21 0.16 0.12 0.08 0.04 0.01 0.00 0.00 0.00 0.00 0.00 0.00 0.00 0.00 0.00 0.00 0.00 0.00
0.06 0.08 0.11 0.16 0.19 0.22 0.26 0.30 0.36 0.41 0.45 0.45 0.46 0.46 0.47 0.48 0.51 0.54 0.57 0.61 0.67 0.69 0.71 0.73 0.73 0.74 0.71 0.59 0.60 0.61 0.62 0.63 0.64 0.64 0.65 0.66 0.63 0.59 0.53 0.45 0.41 0.37 0.35 0.35 0.36 0.36 0.36 0.40 0.39 0.37 0.35 0.32 0.28 0.24 0.19 0.13 0.04 0.01 0.00 0.00 0.00 0.00 0.00 0.00 0.00 0.00 0.00 0.00 0.00
0.01 0.02 0.05 0.09 0.11 0.14 0.15 0.15 0.17 0.18 0.19 0.19 0.19 0.20 0.20 0.20 0.23 0.26 0.29 0.32 0.37 0.42 0.46 0.50 0.53 0.49 0.44 0.44 0.44 0.44 0.43 0.44 0.45 0.47 0.50 0.56 0.65 0.67 0.67 0.65 0.62 0.59 0.56 0.53 0.47 0.46 0.45 0.42 0.41 0.39 0.36 0.32 0.30 0.28 0.25 0.21 0.16 0.09 0.03 0.03 0.01 0.00 0.00 0.00 0.00 0.00 0.00 0.00 0.00
0.00 0.00 0.01 0.01 0.02 0.02 0.02 0.02 0.04 0.05 0.06 0.06 0.07 0.08 0.09 0.10 0.15 0.18 0.21 0.26 0.30 0.35 0.39 0.42 0.46 0.47 0.45 0.43 0.41 0.39 0.39 0.40 0.41 0.42 0.43 0.45 0.49 0.53 0.56 0.56 0.55 0.55 0.54 0.53 0.51 0.45 0.39 0.37 0.36 0.35 0.32 0.28 0.27 0.24 0.22 0.19 0.16 0.11 0.06 0.03 0.02 0.01 0.00 0.00 0.00 0.00 0.00 0.00 0.00
0.00 0.00 0.00 0.00 0.00 0.01 0.01 0.01 0.02 0.02 0.03 0.03 0.03 0.03 0.04 0.07 0.14 0.19 0.24 0.28 0.33 0.35 0.36 0.40 0.41 0.42 0.42 0.41 0.39 0.38 0.39 0.40 0.40 0.39 0.39 0.39 0.39 0.41 0.42 0.43 0.43 0.43 0.43 0.43 0.41 0.33 0.26 0.25 0.24 0.23 0.22 0.20 0.17 0.15 0.13 0.11 0.09 0.06 0.03 0.02 0.01 0.00 0.00 0.00 0.00 0.00 0.00 0.00 0.00
0.00 0.00 0.00 0.01 0.00 0.00 0.00 0.00 0.01 0.02 0.03 0.02 0.02 0.01 0.01 0.01 0.07 0.12 0.16 0.21 0.14 0.16 0.21 0.24 0.27 0.28 0.29 0.31 0.30 0.31 0.32 0.34 0.35 0.35 0.34 0.33 0.32 0.32 0.31 0.31 0.31 0.31 0.30 0.30 0.20 0.16 0.14 0.13 0.12 0.12 0.11 0.10 0.08 0.07 0.05 0.04 0.04 0.02 0.01 0.01 0.00 0.00 0.00 0.00 0.00 0.00 0.00 0.00 0.00
0.00 0.00 0.00 0.00 0.00 0.00 0.00 0.00 0.00 0.00 0.01 0.01 0.01 0.01 0.01 0.01 0.01 0.01 0.02 0.03 0.05 0.07 0.09 0.11 0.19 0.23 0.25 0.26 0.27 0.29 0.31 0.33 0.31 0.30 0.27 0.25 0.23 0.21 0.19 0.17 0.17 0.17 0.17 0.16 0.10 0.07 0.06 0.06 0.05 0.05 0.04 0.03 0.03 0.02 0.02 0.01 0.00 0.00 0.00 0.00 0.00 0.00 0.00 0.00 0.00 0.00 0.00 0.00 0.00
0.00 0.00 0.00 0.00 0.00 0.00 0.00 0.00 0.00 0.00 0.00 0.00 0.00 0.01 0.02 0.02 0.02 0.02 0.02 0.03 0.04 0.05 0.06 0.07 0.17 0.24 0.29 0.32 0.33 0.34 0.36 0.36 0.29 0.24 0.20 0.17 0.14 0.13 0.11 0.09 0.08 0.08 0.07 0.05 0.04 0.04 0.03 0.02 0.02 0.01 0.01 0.01 0.01 0.00 0.00 0.00 0.00 0.00 0.00 0.00 0.00 0.00 0.00 0.00 0.00 0.00 0.00 0.00 0.00
0.00 0.00 0.00 0.00 0.00 0.00 0.00 0.00 0.00 0.00 0.00 0.00 0.00 0.00 0.01 0.02 0.02 0.02 0.02 0.03 0.03 0.04 0.04 0.05 0.12 0.19 0.24 0.28 0.29 0.29 0.28 0.27 0.21 0.17 0.14 0.12 0.09 0.08 0.07 0.06 0.06 0.05 0.05 0.04 0.04 0.03 0.02 0.01 0.01 0.00 0.00 0.00 0.00 0.00 0.00 0.00 0.00 0.00 0.00 0.00 0.00 0.00 0.00 0.00 0.00 0.00 0.00 0.00 0.00
0.00 0.00 0.00 0.00 0.00 0.00 0.00 0.00 0.00 0.00 0.00 0.00 0.00 0.00 0.01 0.01 0.01 0.02 0.03 0.03 0.03 0.04 0.04 0.04 0.07 0.11 0.14 0.17 0.17 0.16 0.15 0.13 0.11 0.10 0.09 0.09 0.07 0.07 0.06 0.05 0.05 0.05 0.04 0.03 0.03 0.02 0.01 0.01 0.00 0.00 0.00 0.00 0.00 0.00 0.00 0.00 0.00 0.00 0.00 0.00 0.00 0.00 0.00 0.00 0.00 0.00 0.00 0.00 0.00
0.00 0.00 0.00 0.00 0.00 0.00 0.00 0.00 0.01 0.01 0.01 0.01 0.01 0.01 0.01 0.01 0.01 0.01 0.02 0.03 0.03 0.04 0.04 0.04 0.05 0.06 0.07 0.08 0.09 0.08 0.08 0.07 0.06 0.06 0.06 0.06 0.05 0.05 0.04 0.04 0.04 0.02 0.01 0.01 0.01 0.00 0.00 0.00 0.00 0.00 0.00 0.00 0.00 0.00 0.00 0.00 0.00 0.00 0.00 0.00 0.00 0.00 0.00 0.00 0.00 0.00 0.00 0.00 0.00
0.00 0.00 0.00 0.00 0.01 0.01 0.01 0.01 0.01 0.01 0.01 0.01 0.01 0.01 0.01 0.01 0.01 0.01 0.01 0.02 0.03 0.03 0.04 0.04 0.05 0.05 0.05 0.05 0.05 0.05 0.05 0.05 0.05 0.05 0.04 0.04 0.03 0.03 0.02 0.02 0.01 0.00 0.00 0.00 0.00 0.00 0.00 0.00 0.00 0.00 0.00 0.00 0.00 0.00 0.00 0.00 0.00 0.00 0.00 0.00 0.00 0.00 0.00 0.00 0.00 0.00 0.00 0.00 0.00
0.00 0.00 0.01 0.01 0.01 0.01 0.01 0.01 0.01 0.02 0.02 0.01 0.01 0.01 0.01 0.01 0.01 0.01 0.01 0.02 0.03 0.04 0.05 0.05 0.06 0.06 0.06 0.06 0.05 0.05 0.04 0.04 0.04 0.03 0.03 0.02 0.02 0.01 0.01 0.00 0.00 0.00 0.00 0.00 0.00 0.00 0.00 0.00 0.00 0.00 0.00 0.00 0.00 0.00 0.00 0.00 0.00 0.00 0.00 0.00 0.00 0.00 0.00 0.00 0.00 0.00 0.00 0.00 0.00
0.00 0.00 0.01 0.02 0.02 0.02 0.02 0.02 0.02 0.02 0.02 0.02 0.01 0.01 0.01 0.01 0.01 0.01 0.01 0.02 0.02 0.03 0.04 0.06 0.07 0.07 0.07 0.07 0.06 0.05 0.05 0.04 0.03 0.03 0.02 0.01 0.00 0.00 0.00 0.00 0.00 0.00 0.00 0.00 0.00 0.00 0.00 0.00 0.00 0.00 0.00 0.00 0.00 0.00 0.00 0.00 0.00 0.00 0.00 0.00 0.00 0.00 0.00 0.00 0.00 0.00 0.00 0.00 0.00
0.00 0.01 0.02 0.02 0.03 0.03 0.04 0.03 0.03 0.03 0.02 0.02 0.02 0.02 0.02 0.01 0.01 0.01 0.02 0.02 0.02 0.02 0.03 0.05 0.06 0.06 0.06 0.06 0.06 0.05 0.04 0.03 0.02 0.02 0.01 0.00 0.00 0.00 0.00 0.00 0.00 0.00 0.00 0.00 0.00 0.00 0.00 0.00 0.00 0.00 0.00 0.00 0.00 0.00 0.00 0.00 0.00 0.00 0.00 0.00 0.00 0.00 0.00 0.00 0.00 0.00 0.00 0.00 0.00
0.00 0.01 0.02 0.02 0.03 0.03 0.04 0.03 0.04 0.04 0.04 0.04 0.05 0.05 0.04 0.02 0.02 0.02 0.03 0.03 0.03 0.02 0.02 0.02 0.03 0.04 0.05 0.05 0.04 0.04 0.03 0.02 0.02 0.01 0.01 0.00 0.00 0.00 0.00 0.00 0.00 0.00 0.00 0.00 0.00 0.00 0.00 0.00 0.00 0.00 0.00 0.00 0.00 0.00 0.00 0.00 0.00 0.00 0.00 0.00 0.00 0.00 0.00 0.00 0.00 0.00 0.00 0.00 0.00
0.00 0.01 0.01 0.02 0.03 0.04 0.05 0.04 0.04 0.05 0.06 0.07 0.09 0.09 0.07 0.05 0.04 0.03 0.04 0.04 0.05 0.04 0.03 0.02 0.02 0.02 0.03 0.04 0.04 0.03 0.02 0.02 0.01 0.01 0.00 0.00 0.00 0.00 0.00 0.00 0.00 0.00 0.00 0.00 0.00 0.00 0.00 0.00 0.00 0.00 0.00 0.00 0.00 0.00 0.00 0.00 0.00 0.00 0.00 0.00 0.00 0.00 0.00 0.00 0.00 0.00 0.00 0.00 0.00
0.00 0.01 0.02 0.03 0.05 0.07 0.07 0.07 0.06 0.06 0.06 0.07 0.09 0.10 0.09 0.08 0.06 0.04 0.04 0.06 0.07 0.07 0.06 0.04 0.03 0.02 0.02 0.03 0.03 0.03 0.02 0.02 0.01 0.01 0.00 0.00 0.00 0.00 0.00 0.00 0.00 0.00 0.00 0.00 0.00 0.00 0.00 0.00 0.00 0.00 0.00 0.00 0.00 0.00 0.00 0.00 0.00 0.00 0.00 0.00 0.00 0.00 0.00 0.00 0.00 0.00 0.00 0.00 0.00
0.00 0.01 0.02 0.03 0.06 0.10 0.12 0.13 0.12 0.10 0.08 0.07 0.08 0.08 0.09 0.09 0.07 0.05 0.05 0.08 0.09 0.08 0.07 0.06 0.05 0.04 0.04 0.03 0.04 0.03 0.02 0.01 0.01 0.00 0.00 0.00 0.00 0.00 0.00 0.00 0.00 0.00 0.00 0.00 0.00 0.00 0.00 0.00 0.00 0.00 0.00 0.00 0.00 0.00 0.00 0.00 0.00 0.00 0.00 0.00 0.00 0.00 0.00 0.00 0.00 0.00 0.00 0.00 0.00
0.01 0.00 0.01 0.02 0.05 0.09 0.12 0.16 0.17 0.16 0.14 0.12 0.12 0.12 0.11 0.10 0.09 0.08 0.08 0.10 0.09 0.09 0.09 0.08 0.08 0.07 0.06 0.06 0.04 0.03 0.02 0.01 0.00 0.00 0.00 0.00 0.00 0.00 0.00 0.00 0.00 0.00 0.00 0.00 0.00 0.00 0.00 0.00 0.00 0.00 0.00 0.00 0.00 0.00 0.00 0.00 0.00 0.00 0.00 0.00 0.00 0.00 0.00 0.00 0.00 0.00 0.00 0.00 0.00
0.01 0.01 0.01 0.01 0.02 0.04 0.07 0.12 0.15 0.16 0.16 0.15 0.16 0.16 0.15 0.14 0.14 0.14 0.13 0.11 0.11 0.11 0.10 0.09 0.09 0.09 0.09 0.09 0.06 0.03 0.02 0.00 0.00 0.00 0.00 0.00 0.00 0.00 0.00 0.00 0.00 0.00 0.00 0.00 0.00 0.00 0.00 0.00 0.00 0.00 0.00 0.00 0.00 0.00 0.00 0.00 0.00 0.00 0.00 0.00 0.00 0.00 0.00 0.00 0.00 0.00 0.00 0.00 0.00
0.02 0.01 0.01 0.01 0.01 0.01 0.03 0.05 0.09 0.10 0.09 0.10 0.12 0.14 0.16 0.18 0.20 0.20 0.19 0.16 0.17 0.16 0.13 0.11 0.11 0.09 0.09 0.10 0.08 0.04 0.01 0.00 0.00 0.00 0.00 0.00 0.00 0.00 0.00 0.00 0.00 0.00 0.00 0.00 0.00 0.00 0.00 0.00 0.00 0.00 0.00 0.00 0.00 0.00 0.00 0.00 0.00 0.00 0.00 0.00 0.00 0.00 0.00 0.00 0.00 0.00 0.00 0.00 0.00
0.02 0.01 0.01 0.00 0.00 0.00 0.01 0.01 0.05 0.05 0.04 0.04 0.06 0.09 0.12 0.15 0.18 0.20 0.20 0.18 0.21 0.22 0.19 0.16 0.13 0.11 0.10 0.09 0.05 0.02 0.00 0.00 0.00 0.00 0.00 0.00 0.00 0.00 0.00 0.00 0.00 0.00 0.00 0.00 0.00 0.00 0.00 0.00 0.00 0.00 0.00 0.00 0.00 0.00 0.00 0.00 0.00 0.00 0.00 0.00 0.00 0.00 0.00 0.00 0.00 0.00 0.00 0.00 0.00
0.03 0.02 0.01 0.00 0.00 0.00 0.00 0.01 0.02 0.03 0.03 0.02 0.04 0.05 0.07 0.09 0.13 0.15 0.15 0.16 0.21 0.23 0.24 0.23 0.19 0.15 0.11 0.07 0.04 0.02 0.01 0.00 0.00 0.00 0.00 0.00 0.00 0.00 0.00 0.00 0.00 0.00 0.00 0.00 0.00 0.00 0.00 0.00 0.00 0.00 0.00 0.00 0.00 0.00 0.00 0.00 0.00 0.00 0.00 0.00 0.00 0.00 0.00 0.00 0.00 0.00 0.00 0.00 0.00
0.05 0.03 0.02 0.00 0.00 0.00 0.00 0.00 0.01 0.02 0.03 0.02 0.03 0.04 0.05 0.08 0.09 0.11 0.11 0.11 0.16 0.21 0.24 0.23 0.21 0.17 0.12 0.07 0.03 0.01 0.00 0.00 0.00 0.00 0.00 0.00 0.00 0.00 0.00 0.00 0.00 0.00 0.00 0.00 0.00 0.00 0.00 0.00 0.00 0.00 0.00 0.00 0.00 0.00 0.00 0.00 0.00 0.00 0.00 0.00 0.00 0.00 0.00 0.00 0.00 0.00 0.00 0.00 0.00
0.05 0.04 0.03 0.01 0.00 0.00 0.00 0.00 0.01 0.01 0.01 0.02 0.03 0.04 0.06 0.07 0.08 0.09 0.10 0.10 0.15 0.20 0.23 0.24 0.21 0.17 0.13 0.08 0.04 0.02 0.01 0.00 0.00 0.00 0.00 0.00 0.00 0.00 0.00 0.00 0.00 0.00 0.00 0.00 0.00 0.00 0.00 0.00 0.00 0.00 0.00 0.00 0.00 0.00 0.00 0.00 0.00 0.00 0.00 0.00 0.00 0.00 0.00 0.00 0.00 0.00 0.00 0.00 0.00
0.07 0.06 0.04 0.02 0.01 0.00 0.00 0.00 0.00 0.01 0.02 0.03 0.04 0.06 0.08 0.09 0.09 0.09 0.09 0.09 0.14 0.18 0.21 0.22 0.19 0.16 0.13 0.09 0.05 0.02 0.01 0.00 0.00 0.00 0.00 0.00 0.00 0.00 0.00 0.00 0.00 0.00 0.00 0.00 0.00 0.00 0.00 0.00 0.00 0.00 0.00 0.00 0.00 0.00 0.00 0.00 0.00 0.00 0.00 0.00 0.00 0.00 0.00 0.00 0.00 0.00 0.00 0.00 0.00
0.09 0.08 0.06 0.05 0.02 0.01 0.00 0.00 0.00 0.01 0.03 0.04 0.06 0.07 0.08 0.07 0.07 0.07 0.06 0.04 0.13 0.19 0.23 0.23 0.19 0.15 0.11 0.09 0.06 0.03 0.01 0.00 0.00 0.00 0.00 0.00 0.00 0.00 0.00 0.00 0.00 0.00 0.00 0.00 0.00 0.00 0.00 0.00 0.00 0.00 0.00 0.00 0.00 0.00 0.00 0.00 0.00 0.00 0.00 0.00 0.00 0.00 0.00 0.00 0.00 0.00 0.00 0.00 0.00
0.09 0.08 0.07 0.06 0.04 0.03 0.02 0.01 0.01 0.02 0.03 0.05 0.05 0.06 0.06 0.06 0.05 0.04 0.04 0.04 0.13 0.20 0.23 0.22 0.19 0.15 0.10 0.07 0.05 0.03 0.02 0.00 0.00 0.00 0.00 0.00 0.00 0.00 0.00 0.00 0.00 0.00 0.00 0.00 0.00 0.00 0.00 0.00 0.00 0.00 0.00 0.00 0.00 0.00 0.00 0.00 0.00 0.00 0.00 0.00 0.00 0.00 0.00 0.00 0.00 0.00 0.00 0.00 0.00
0.11 0.11 0.10 0.07 0.05 0.04 0.03 0.01 0.02 0.02 0.03 0.02 0.02 0.03 0.04 0.05 0.05 0.05 0.06 0.06 0.08 0.14 0.18 0.19 0.17 0.13 0.09 0.05 0.03 0.02 0.01 0.00 0.00 0.00 0.00 0.00 0.00 0.00 0.00 0.00 0.00 0.00 0.00 0.00 0.00 0.00 0.00 0.00 0.00 0.00 0.00 0.00 0.00 0.00 0.00 0.00 0.00 0.00 0.00 0.00 0.00 0.00 0.00 0.00 0.00 0.00 0.00 0.00 0.00
0.08 0.10 0.13 0.13 0.09 0.06 0.04 0.02 0.02 0.03 0.03 0.02 0.02 0.02 0.02 0.04 0.04 0.05 0.06 0.07 0.07 0.12 0.17 0.17 0.15 0.12 0.08 0.04 0.02 0.01 0.01 0.00 0.00 0.00 0.00 0.00 0.00 0.00 0.00 0.00 0.00 0.00 0.00 0.00 0.00 0.00 0.00 0.00 0.00 0.00 0.00 0.00 0.00 0.00 0.00 0.00 0.00 0.00 0.00 0.00 0.00 0.00 0.00 0.00 0.00 0.00 0.00 0.00 0.00
0.03 0.04 0.06 0.10 0.14 0.14 0.11 0.07 0.04 0.04 0.05 0.04 0.03 0.02 0.02 0.02 0.03 0.03 0.04 0.05 0.06 0.12 0.18 0.18 0.16 0.13 0.09 0.04 0.02 0.01 0.00 0.00 0.00 0.00 0.00 0.00 0.00 0.00 0.00 0.00 0.00 0.00 0.00 0.00 0.00 0.00 0.00 0.00 0.00 0.00 0.00 0.00 0.00 0.00 0.00 0.00 0.00 0.00 0.00 0.00 0.00 0.00 0.00 0.00 0.00 0.00 0.00 0.00 0.00
0.01 0.01 0.02 0.03 0.06 0.10 0.14 0.16 0.08 0.05 0.05 0.04 0.03 0.03 0.02 0.02 0.02 0.02 0.03 0.03 0.05 0.10 0.16 0.20 0.20 0.17 0.13 0.07 0.04 0.02 0.00 0.00 0.00 0.00 0.00 0.00 0.00 0.00 0.00 0.00 0.00 0.00 0.00 0.00 0.00 0.00 0.00 0.00 0.00 0.00 0.00 0.00 0.00 0.00 0.00 0.00 0.00 0.00 0.00 0.00 0.00 0.00 0.00 0.00 0.00 0.00 0.00 0.00 0.00
0.01 0.01 0.01 0.01 0.01 0.03 0.06 0.13 0.10 0.06 0.04 0.04 0.03 0.03 0.03 0.02 0.03 0.03 0.03 0.03 0.03 0.04 0.09 0.17 0.19 0.19 0.16 0.11 0.06 0.03 0.01 0.00 0.00 0.00 0.00 0.00 0.00 0.00 0.00 0.00 0.00 0.00 0.00 0.00 0.00 0.00 0.00 0.00 0.00 0.00 0.00 0.00 0.00 0.00 0.00 0.00 0.00 0.00 0.00 0.00 0.00 0.00 0.00 0.00 0.00 0.00 0.00 0.00 0.00
0.01 0.01 0.00 0.00 0.00 0.00 0.02 0.06 0.08 0.07 0.04 0.03 0.02 0.02 0.02 0.02 0.03 0.03 0.02 0.02 0.02 0.02 0.05 0.13 0.17 0.18 0.17 0.14 0.09 0.05 0.02 0.00 0.00 0.00 0.00 0.00 0.00 0.00 0.00 0.00 0.00 0.00 0.00 0.00 0.00 0.00 0.00 0.00 0.00 0.00 0.00 0.00 0.00 0.00 0.00 0.00 0.00 0.00 0.00 0.00 0.00 0.00 0.00 0.00 0.00 0.00 0.00 0.00 0.00
0.00 0.00 0.00 0.00 0.00 0.00 0.00 0.01 0.02 0.03 0.03 0.03 0.02 0.01 0.01 0.01 0.01 0.02 0.02 0.01 0.01 0.01 0.02 0.07 0.14 0.19 0.20 0.17 0.11 0.07 0.03 0.01 0.00 0.00 0.00 0.00 0.00 0.00 0.00 0.00 0.00 0.00 0.00 0.00 0.00 0.00 0.00 0.00 0.00 0.00 0.00 0.00 0.00 0.00 0.00 0.00 0.00 0.00 0.00 0.00 0.00 0.00 0.00 0.00 0.00 0.00 0.00 0.00 0.00
0.00 0.00 0.00 0.00 0.00 0.00 0.00 0.00 0.00 0.01 0.01 0.02 0.01 0.01 0.01 0.01 0.01 0.01 0.01 0.01 0.00 0.00 0.01 0.02 0.13 0.19 0.20 0.18 0.12 0.07 0.03 0.01 0.01 0.00 0.00 0.00 0.00 0.00 0.00 0.00 0.00 0.00 0.00 0.00 0.00 0.00 0.00 0.00 0.00 0.00 0.00 0.00 0.00 0.00 0.00 0.00 0.00 0.00 0.00 0.00 0.00 0.00 0.00 0.00 0.00 0.00 0.00 0.00 0.00
0.00 0.00 0.00 0.00 0.00 0.00 0.00 0.00 0.00 0.00 0.00 0.01 0.01 0.00 0.00 0.00 0.00 0.00 0.00 0.00 0.00 0.00 0.01 0.03 0.12 0.17 0.17 0.15 0.10 0.06 0.03 0.02 0.01 0.00 0.00 0.00 0.00 0.00 0.00 0.00 0.00 0.00 0.00 0.00 0.00 0.00 0.00 0.00 0.00 0.00 0.00 0.00 0.00 0.00 0.00 0.00 0.00 0.00 0.00 0.00 0.00 0.00 0.00 0.00 0.00 0.00 0.00 0.00 0.00
MSLP
1009.49 1009.41 1009.37 1009.37 1009.29 1009.33 1009.41 1009.53 1009.57 1009.57 1009.57 1009.69 1009.81 1009.85 1009.89 1009.89 1009.93 1010.01 1010.09 1010.13 1010.17 1010.25 1010.33 1010.33 1010.41 1010.53 1010.65 1010.69 1010.73 1010.85 1010.97 1010.97 1010.97 1011.09 1011.29 1011.61 1011.89 1012.21 1012.49 1012.81 1013.41 1014.17 1014.69 1014.61 1014.25 1013.97 1013.69 1013.61 1013.65 1013.85 1014.17 1014.45 1014.69 1014.97 1015.25 1015.49 1015.69 1015.97 1016.25 1016.65 1017.05 1017.25 1017.37 1017.53 1017.77 1017.97 1018.17 1018.37 1018.57
1009.45 1009.37 1009.37 1009.37 1009.29 1009.21 1009.17 1009.17 1009.25 1009.21 1009.17 1009.17 1009.37 1009.53 1009.69 1009.93 1010.13 1010.37 1010.57 1010.69 1010.89 1011.01 1011.09 1011.17 1011.25 1011.25 1011.25 1011.37 1011.41 1011.53 1011.57 1011.53 1011.33 1011.25 1011.37 1011.73 1012.13 1012.53 1012.85 1012.97 1013.33 1014.05 1014.77 1015.05 1014.85 1014.53 1014.21 1013.97 1013.93 1014.09 1014.37 1014.57 1014.81 1015.17 1015.53 1015.77 1015.89 1016.09 1016.37 1016.73 1017.09 1017.29 1017.49 1017.69 1017.97 1018.17 1018.37 1018.53 1018.69
1009.49 1009.33 1009.25 1009.21 1009.21 1009.13 1009.09 1009.01 1008.97 1008.89 1008.81 1008.77 1008.85 1009.09 1009.25 1009.45 1009.69 1009.97 1010.37 1010.69 1011.05 1011.33 1011.57 1011.81 1011.93 1011.97 1011.93 1011.97 1012.09 1012.25 1012.29 1012.21 1011.93 1011.69 1011.65 1011.81 1012.25 1012.81 1013.21 1013.33 1013.37 1013.93 1014.69 1015.25 1015.25 1015.09 1014.77 1014.49 1014.33 1014.37 1014.57 1014.81 1015.09 1015.53 1015.89 1016.13 1016.25 1016.37 1016.53 1016.81 1017.09 1017.33 1017.61 1017.89 1018.17 1018.37 1018.53 1018.69 1018.81
1009.61 1009.37 1009.17 1009.01 1008.97 1008.97 1009.01 1008.97 1008.97 1008.85 1008.77 1008.73 1008.69 1008.81 1009.01 1009.21 1009.25 1009.37 1009.61 1009.97 1010.33 1010.81 1011.33 1011.81 1012.21 1012.41 1012.53 1012.53 1012.65 1012.77 1012.85 1012.85 1012.69 1012.45 1012.29 1012.25 1012.53 1013.05 1013.45 1013.61 1013.65 1013.97 1014.53 1015.13 1015.41 1015.37 1015.17 1014.97 1014.81 1014.85 1015.01 1015.21 1015.45 1015.85 1016.25 1016.53 1016.65 1016.65 1016.73 1016.97 1017.17 1017.41 1017.73 1018.09 1018.37 1018.53 1018.69 1018.81 1018.93
1009.73 1009.49 1009.25 1009.01 1008.85 1008.85 1008.97 1009.01 1008.97 1008.89 1008.81 1008.81 1008.73 1008.81 1009.09 1009.33 1009.41 1009.45 1009.45 1009.53 1009.69 1009.97 1010.41 1010.97 1011.57 1012.17 1012.61 1012.81 1012.93 1013.09 1013.17 1013.21 1013.13 1013.05 1012.97 1012.89 1012.97 1013.29 1013.69 1014.01 1014.09 1014.21 1014.53 1015.05 1015.37 1015.53 1015.49 1015.37 1015.45 1015.53 1015.65 1015.77 1015.97 1016.25 1016.57 1016.81 1016.93 1016.97 1017.09 1017.29 1017.45 1017.69 1017.97 1018.33 1018.53 1018.69 1018.81 1018.89 1019.01
1009.81 1009.53 1009.33 1009.09 1008.93 1008.85 1008.89 1008.93 1008.81 1008.77 1008.77 1008.81 1008.81 1008.85 1009.09 1009.45 1009.61 1009.69 1009.69 1009.77 1009.85 1009.97 1010.09 1010.37 1010.81 1011.37 1012.01 1012.49 1012.81 1013.05 1013.17 1013.25 1013.21 1013.17 1013.17 1013.21 1013.37 1013.69 1014.05 1014.37 1014.45 1014.53 1014.69 1015.05 1015.33 1015.49 1015.53 1015.61 1015.69 1015.81 1015.93 1015.97 1016.17 1016.41 1016.69 1016.97 1017.21 1017.45 1017.69 1017.85 1017.97 1018.09 1018.29 1018.53 1018.69 1018.77 1018.85 1018.97 1019.01
1009.81 1009.57 1009.37 1009.21 1009.01 1008.85 1008.81 1008.81 1008.77 1008.73 1008.73 1008.81 1008.81 1008.85 1009.09 1009.45 1009.69 1009.77 1009.81 1009.89 1010.09 1010.29 1010.41 1010.53 1010.65 1010.93 1011.37 1011.93 1012.41 1012.77 1012.97 1013.05 1013.09 1013.09 1013.17 1013.37 1013.65 1013.93 1014.21 1014.45 1014.53 1014.57 1014.69 1014.85 1015.09 1015.25 1015.33 1015.37 1015.53 1015.73 1015.89 1016.05 1016.29 1016.57 1016.85 1017.09 1017.45 1017.73 1017.97 1018.21 1018.33 1018.45 1018.53 1018.65 1018.77 1018.85 1018.89 1018.97 1019.01
1009.77 1009.61 1009.41 1009.21 1009.05 1008.85 1008.73 1008.69 1008.65 1008.69 1008.73 1008.77 1008.77 1008.81 1008.97 1009.29 1009.65 1009.81 1009.81 1009.89 1010.05 1010.25 1010.45 1010.61 1010.73 1010.85 1011.09 1011.53 1012.01 1012.41 1012.69 1012.81 1012.89 1013.01 1013.21 1013.45 1013.65 1013.85 1014.05 1014.21 1014.25 1014.33 1014.41 1014.61 1014.81 1015.05 1015.21 1015.33 1015.49 1015.69 1015.97 1016.25 1016.53 1016.81 1017.09 1017.29 1017.53 1017.81 1018.05 1018.25 1018.45 1018.57 1018.61 1018.69 1018.77 1018.85 1018.93 1018.97 1019.05
1009.53 1009.41 1009.29 1009.13 1008.97 1008.81 1008.69 1008.61 1008.57 1008.57 1008.61 1008.69 1008.77 1008.81 1008.89 1009.09 1009.49 1009.69 1009.81 1009.85 1009.93 1010.05 1010.25 1010.45 1010.65 1010.81 1011.01 1011.33 1011.77 1012.17 1012.45 1012.61 1012.69 1012.93 1013.17 1013.37 1013.57 1013.73 1013.89 1013.97 1014.09 1014.21 1014.41 1014.65 1014.89 1015.09 1015.29 1015.45 1015.61 1015.77 1015.97 1016.25 1016.53 1016.89 1017.13 1017.37 1017.53 1017.81 1018.05 1018.25 1018.41 1018.53 1018.61 1018.69 1018.77 1018.85 1018.93 1018.97 1019.09
1009.09 1009.01 1008.97 1008.97 1008.89 1008.77 1008.65 1008.57 1008.53 1008.53 1008.57 1008.69 1008.81 1008.89 1008.97 1009.05 1009.29 1009.53 1009.69 1009.81 1009.89 1009.97 1010.09 1010.25 1010.41 1010.65 1010.93 1011.21 1011.61 1011.97 1012.25 1012.45 1012.65 1012.85 1013.13 1013.37 1013.53 1013.69 1013.81 1013.97 1014.09 1014.25 1014.49 1014.69 1014.93 1015.13 1015.29 1015.45 1015.65 1015.81 1016.05 1016.25 1016.53 1016.81 1017.09 1017.33 1017.49 1017.69 1017.97 1018.13 1018.29 1018.41 1018.53 1018.69 1018.77 1018.81 1018.89 1018.97 1019.09
1008.85 1008.69 1008.65 1008.69 1008.65 1008.65 1008.57 1008.49 1008.49 1008.53 1008.57 1008.69 1008.81 1008.93 1009.01 1009.09 1009.25 1009.45 1009.65 1009.77 1009.85 1009.97 1010.01 1010.09 1010.25 1010.41 1010.69 1011.05 1011.37 1011.69 1012.01 1012.33 1012.61 1012.93 1013.17 1013.37 1013.53 1013.65 1013.73 1013.85 1014.01 1014.21 1014.41 1014.69 1014.93 1015.13 1015.33 1015.49 1015.69 1015.85 1016.05 1016.29 1016.53 1016.81 1017.05 1017.25 1017.37 1017.61 1017.81 1018.01 1018.17 1018.29 1018.45 1018.65 1018.73 1018.81 1018.85 1018.97 1019.13
1008.69 1008.45 1008.37 1008.37 1008.41 1008.41 1008.41 1008.33 1008.33 1008.41 1008.53 1008.61 1008.73 1008.89 1008.97 1009.09 1009.21 1009.37 1009.57 1009.69 1009.81 1009.93 1010.01 1010.09 1010.17 1010.29 1010.53 1010.81 1011.13 1011.41 1011.77 1012.17 1012.53 1012.85 1013.09 1013.29 1013.45 1013.57 1013.73 1013.85 1014.05 1014.25 1014.49 1014.69 1014.97 1015.13 1015.33 1015.49 1015.69 1015.81 1016.01 1016.25 1016.53 1016.73 1016.97 1017.09 1017.29 1017.53 1017.73 1017.97 1018.09 1018.25 1018.41 1018.53 1018.65 1018.73 1018.85 1019.01 1019.17
1008.53 1008.25 1008.09 1008.09 1008.13 1008.17 1008.17 1008.13 1008.09 1008.21 1008.33 1008.45 1008.57 1008.69 1008.85 1008.97 1009.09 1009.25 1009.45 1009.61 1009.73 1009.85 1009.97 1010.09 1010.13 1010.21 1010.37 1010.61 1010.85 1011.17 1011.53 1011.93 1012.29 1012.61 1012.89 1013.13 1013.37 1013.53 1013.73 1013.93 1014.09 1014.33 1014.53 1014.77 1014.97 1015.13 1015.25 1015.45 1015.57 1015.73 1015.93 1016.17 1016.41 1016.65 1016.81 1016.97 1017.21 1017.41 1017.69 1017.89 1018.09 1018.21 1018.33 1018.49 1018.61 1018.69 1018.85 1019.05 1019.25
1008.37 1008.05 1007.81 1007.81 1007.89 1007.93 1007.93 1007.97 1007.85 1007.93 1008.05 1008.25 1008.41 1008.53 1008.69 1008.81 1008.97 1009.13 1009.29 1009.45 1009.61 1009.77 1009.89 1010.05 1010.13 1010.21 1010.25 1010.41 1010.65 1010.97 1011.33 1011.69 1012.05 1012.37 1012.69 1012.97 1013.21 1013.45 1013.69 1013.85 1014.09 1014.33 1014.53 1014.77 1014.93 1015.05 1015.17 1015.33 1015.49 1015.61 1015.77 1016.01 1016.29 1016.53 1016.73 1016.93 1017.09 1017.33 1017.57 1017.77 1017.97 1018.09 1018.29 1018.49 1018.61 1018.73 1018.89 1019.09 1019.29
1008.25 1007.85 1007.61 1007.53 1007.61 1007.69 1007.69 1007.69 1007.65 1007.61 1007.73 1007.97 1008.17 1008.33 1008.49 1008.65 1008.81 1008.97 1009.17 1009.33 1009.53 1009.65 1009.77 1009.93 1010.05 1010.13 1010.25 1010.37 1010.53 1010.81 1011.17 1011.57 1011.89 1012.17 1012.45 1012.73 1013.01 1013.25 1013.53 1013.81 1014.05 1014.29 1014.53 1014.69 1014.85 1014.97 1015.09 1015.25 1015.41 1015.57 1015.77 1015.97 1016.21 1016.45 1016.69 1016.93 1017.09 1017.29 1017.49 1017.69 1017.85 1018.05 1018.25 1018.45 1018.61 1018.77 1018.93 1019.13 1019.37
1008.17 1007.77 1007.45 1007.33 1007.37 1007.37 1007.41 1007.41 1007.41 1007.37 1007.45 1007.61 1007.85 1008.09 1008.25 1008.41 1008.61 1008.81 1008.97 1009.21 1009.37 1009.53 1009.69 1009.77 1009.85 1010.01 1010.21 1010.37 1010.53 1010.73 1011.09 1011.45 1011.77 1012.01 1012.25 1012.49 1012.77 1013.05 1013.33 1013.69 1013.93 1014.21 1014.45 1014.65 1014.81 1014.97 1015.13 1015.29 1015.45 1015.61 1015.81 1015.97 1016.21 1016.45 1016.69 1016.93 1017.13 1017.33 1017.53 1017.65 1017.81 1018.05 1018.25 1018.45 1018.61 1018.81 1018.97 1019.13 1019.37
1008.09 1007.73 1007.41 1007.25 1007.17 1007.13 1007.13 1007.21 1007.21 1007.17 1007.17 1007.33 1007.57 1007.81 1007.97 1008.13 1008.33 1008.53 1008.73 1008.97 1009.13 1009.33 1009.49 1009.61 1009.69 1009.85 1010.09 1010.29 1010.49 1010.69 1010.97 1011.25 1011.57 1011.81 1012.01 1012.21 1012.49 1012.77 1013.09 1013.41 1013.73 1014.05 1014.37 1014.57 1014.81 1015.01 1015.21 1015.41 1015.57 1015.73 1015.85 1016.05 1016.25 1016.45 1016.69 1016.93 1017.13 1017.33 1017.53 1017.73 1017.93 1018.09 1018.29 1018.45 1018.61 1018.81 1018.97 1019.17 1019.41
1008.05 1007.73 1007.37 1007.13 1007.01 1006.97 1006.93 1006.93 1006.97 1006.97 1006.97 1007.09 1007.29 1007.53 1007.69 1007.85 1008.01 1008.25 1008.45 1008.69 1008.85 1009.05 1009.25 1009.41 1009.53 1009.69 1009.81 1010.05 1010.33 1010.57 1010.81 1011.09 1011.33 1011.57 1011.81 1012.01 1012.25 1012.53 1012.89 1013.25 1013.57 1013.93 1014.25 1014.53 1014.73 1014.97 1015.21 1015.41 1015.65 1015.81 1015.97 1016.17 1016.37 1016.53 1016.73 1016.93 1017.13 1017.37 1017.57 1017.81 1017.97 1018.17 1018.37 1018.53 1018.69 1018.85 1019.05 1019.21 1019.45
1007.97 1007.69 1007.37 1007.05 1006.81 1006.73 1006.69 1006.69 1006.69 1006.73 1006.77 1006.89 1007.09 1007.33 1007.49 1007.61 1007.73 1007.93 1008.17 1008.45 1008.65 1008.81 1009.01 1009.25 1009.37 1009.53 1009.65 1009.81 1010.09 1010.41 1010.65 1010.85 1011.09 1011.37 1011.65 1011.89 1012.13 1012.45 1012.77 1013.09 1013.45 1013.81 1014.13 1014.41 1014.69 1014.97 1015.17 1015.41 1015.65 1015.81 1016.05 1016.25 1016.41 1016.61 1016.81 1016.97 1017.21 1017.45 1017.69 1017.89 1018.09 1018.29 1018.49 1018.65 1018.81 1018.97 1019.09 1019.25 1019.49
1007.93 1007.65 1007.33 1006.97 1006.69 1006.61 1006.57 1006.49 1006.41 1006.45 1006.57 1006.77 1006.97 1007.21 1007.33 1007.41 1007.53 1007.69 1007.89 1008.09 1008.41 1008.61 1008.81 1009.01 1009.25 1009.41 1009.53 1009.69 1009.93 1010.21 1010.53 1010.73 1010.97 1011.25 1011.53 1011.81 1012.13 1012.41 1012.69 1013.05 1013.37 1013.73 1014.09 1014.41 1014.69 1014.93 1015.21 1015.41 1015.61 1015.81 1016.05 1016.25 1016.45 1016.65 1016.85 1017.09 1017.33 1017.57 1017.81 1018.05 1018.25 1018.45 1018.65 1018.77 1018.93 1019.05 1019.21 1019.37 1019.53
1007.93 1007.61 1007.25 1006.93 1006.65 1006.53 1006.49 1006.37 1006.21 1006.21 1006.37 1006.57 1006.81 1007.01 1007.13 1007.25 1007.37 1007.45 1007.57 1007.81 1008.09 1008.37 1008.65 1008.85 1009.09 1009.29 1009.45 1009.57 1009.77 1010.05 1010.33 1010.61 1010.89 1011.13 1011.41 1011.73 1012.09 1012.41 1012.65 1012.97 1013.33 1013.69 1014.05 1014.41 1014.69 1014.93 1015.17 1015.37 1015.61 1015.81 1016.05 1016.25 1016.45 1016.65 1016.89 1017.13 1017.37 1017.69 1017.97 1018.21 1018.41 1018.61 1018.77 1018.89 1019.05 1019.21 1019.33 1019.45 1019.61
1007.81 1007.57 1007.25 1006.85 1006.53 1006.41 1006.37 1006.29 1006.13 1006.09 1006.17 1006.33 1006.53 1006.77 1006.93 1007.01 1007.09 1007.25 1007.37 1007.57 1007.81 1008.09 1008.37 1008.69 1008.93 1009.13 1009.29 1009.41 1009.57 1009.85 1010.17 1010.49 1010.73 1010.97 1011.25 1011.65 1011.97 1012.33 1012.61 1012.97 1013.25 1013.65 1014.01 1014.37 1014.65 1014.93 1015.13 1015.33 1015.53 1015.81 1016.05 1016.25 1016.45 1016.65 1016.85 1017.13 1017.41 1017.73 1018.01 1018.25 1018.53 1018.73 1018.89 1019.05 1019.17 1019.29 1019.41 1019.57 1019.73
1007.77 1007.53 1007.21 1006.81 1006.41 1006.17 1006.09 1006.09 1006.09 1006.05 1006.05 1006.13 1006.33 1006.53 1006.69 1006.81 1006.93 1007.09 1007.25 1007.49 1007.69 1007.85 1008.09 1008.41 1008.69 1008.97 1009.13 1009.29 1009.45 1009.69 1010.05 1010.37 1010.69 1010.93 1011.21 1011.53 1011.89 1012.25 1012.65 1012.97 1013.25 1013.57 1013.93 1014.25 1014.53 1014.81 1015.05 1015.29 1015.53 1015.77 1015.97 1016.21 1016.41 1016.69 1016.93 1017.21 1017.49 1017.77 1018.05 1018.33 1018.57 1018.81 1019.01 1019.17 1019.33 1019.45 1019.61 1019.77 1019.93
1007.69 1007.45 1007.09 1006.69 1006.33 1005.97 1005.81 1005.85 1005.93 1005.97 1005.97 1005.97 1006.17 1006.37 1006.53 1006.69 1006.85 1007.05 1007.25 1007.41 1007.53 1007.69 1007.85 1008.17 1008.53 1008.81 1009.01 1009.25 1009.41 1009.61 1009.89 1010.21 1010.53 1010.81 1011.09 1011.45 1011.81 1012.25 1012.57 1012.89 1013.21 1013.53 1013.81 1014.13 1014.41 1014.65 1014.89 1015.17 1015.45 1015.69 1015.93 1016.17 1016.41 1016.69 1017.01 1017.29 1017.53 1017.81 1018.09 1018.41 1018.69 1018.89 1019.13 1019.33 1019.49 1019.65 1019.81 1019.97 1020.13
1007.57 1007.33 1007.01 1006.69 1006.25 1005.85 1005.57 1005.53 1005.69 1005.77 1005.77 1005.77 1005.93 1006.13 1006.37 1006.53 1006.73 1006.93 1007.13 1007.33 1007.37 1007.53 1007.81 1008.01 1008.33 1008.61 1008.93 1009.17 1009.37 1009.57 1009.81 1010.05 1010.29 1010.61 1010.97 1011.37 1011.77 1012.13 1012.49 1012.81 1013.13 1013.45 1013.81 1014.09 1014.37 1014.53 1014.73 1014.93 1015.17 1015.45 1015.77 1016.09 1016.41 1016.77 1017.09 1017.37 1017.69 1017.97 1018.25 1018.49 1018.73 1018.97 1019.21 1019.45 1019.65 1019.81 1019.97 1020.09 1020.25
1007.41 1007.17 1006.85 1006.53 1006.17 1005.73 1005.37 1005.25 1005.33 1005.45 1005.53 1005.57 1005.69 1005.81 1006.09 1006.33 1006.53 1006.73 1006.93 1007.17 1007.29 1007.49 1007.69 1007.93 1008.17 1008.45 1008.77 1009.01 1009.25 1009.49 1009.69 1009.89 1010.13 1010.41 1010.81 1011.21 1011.61 1012.01 1012.37 1012.69 1013.01 1013.37 1013.77 1014.05 1014.33 1014.53 1014.69 1014.81 1014.97 1015.25 1015.57 1015.97 1016.41 1016.81 1017.17 1017.53 1017.81 1018.09 1018.41 1018.57 1018.81 1019.05 1019.25 1019.53 1019.73 1019.93 1020.09 1020.25 1020.37
1007.25 1006.97 1006.69 1006.41 1006.05 1005.65 1005.25 1004.97 1004.93 1005.09 1005.25 1005.37 1005.41 1005.53 1005.73 1006.01 1006.25 1006.49 1006.69 1006.93 1007.13 1007.37 1007.65 1007.85 1008.09 1008.37 1008.69 1008.89 1009.13 1009.37 1009.57 1009.77 1010.01 1010.33 1010.69 1010.97 1011.37 1011.81 1012.13 1012.49 1012.85 1013.29 1013.69 1013.97 1014.25 1014.49 1014.69 1014.85 1014.97 1015.17 1015.49 1015.85 1016.29 1016.69 1017.09 1017.53 1017.97 1018.25 1018.49 1018.69 1018.89 1019.09 1019.29 1019.53 1019.73 1019.93 1020.13 1020.29 1020.41
1007.05 1006.81 1006.53 1006.25 1005.93 1005.57 1005.17 1004.81 1004.61 1004.69 1004.89 1005.09 1005.09 1005.21 1005.37 1005.69 1005.97 1006.25 1006.45 1006.69 1006.97 1007.25 1007.53 1007.81 1008.01 1008.29 1008.61 1008.89 1009.05 1009.17 1009.37 1009.57 1009.89 1010.25 1010.61 1010.93 1011.25 1011.57 1011.93 1012.29 1012.69 1013.17 1013.57 1013.89 1014.17 1014.41 1014.65 1014.81 1015.05 1015.25 1015.49 1015.81 1016.25 1016.69 1017.09 1017.53 1017.93 1018.25 1018.53 1018.77 1018.97 1019.09 1019.29 1019.53 1019.73 1019.93 1020.09 1020.25 1020.37
1006.81 1006.61 1006.33 1006.05 1005.73 1005.45 1005.09 1004.73 1004.41 1004.29 1004.41 1004.61 1004.81 1004.97 1005.21 1005.41 1005.65 1005.93 1006.21 1006.49 1006.77 1007.09 1007.37 1007.69 1008.01 1008.25 1008.53 1008.77 1008.93 1009.09 1009.25 1009.41 1009.73 1010.09 1010.53 1010.93 1011.25 1011.53 1011.81 1012.13 1012.57 1013.05 1013.49 1013.81 1014.09 1014.37 1014.57 1014.81 1015.01 1015.25 1015.53 1015.81 1016.25 1016.69 1017.09 1017.49 1017.81 1018.17 1018.45 1018.73 1018.97 1019.09 1019.29 1019.49 1019.69 1019.85 1020.05 1020.17 1020.29
1006.61 1006.41 1006.13 1005.85 1005.57 1005.37 1005.05 1004.69 1004.29 1004.01 1004.01 1004.25 1004.53 1004.77 1005.01 1005.21 1005.41 1005.69 1005.97 1006.25 1006.53 1006.81 1007.17 1007.53 1007.89 1008.13 1008.37 1008.65 1008.81 1008.97 1009.09 1009.33 1009.61 1010.01 1010.49 1010.89 1011.21 1011.45 1011.73 1012.09 1012.53 1012.97 1013.41 1013.77 1014.01 1014.25 1014.53 1014.73 1015.01 1015.29 1015.61 1015.89 1016.21 1016.61 1017.01 1017.41 1017.73 1018.09 1018.41 1018.69 1018.89 1019.09 1019.25 1019.45 1019.57 1019.77 1019.93 1020.09 1020.21
1006.37 1006.13 1005.93 1005.65 1005.41 1005.21 1004.97 1004.69 1004.25 1003.89 1003.81 1003.97 1004.25 1004.49 1004.73 1004.97 1005.25 1005.49 1005.73 1006.01 1006.29 1006.57 1006.97 1007.37 1007.69 1007.97 1008.25 1008.53 1008.73 1008.85 1008.97 1009.21 1009.53 1009.97 1010.41 1010.81 1011.17 1011.41 1011.69 1012.05 1012.45 1012.93 1013.37 1013.69 1013.93 1014.21 1014.49 1014.73 1015.01 1015.33 1015.65 1015.89 1016.21 1016.57 1016.97 1017.37 1017.69 1018.01 1018.33 1018.65 1018.89 1019.09 1019.25 1019.41 1019.53 1019.69 1019.81 1019.97 1020.09
1006.09 1005.85 1005.69 1005.45 1005.25 1005.05 1004.85 1004.65 1004.25 1003.89 1003.69 1003.77 1003.97 1004.21 1004.41 1004.69 1004.97 1005.25 1005.53 1005.81 1006.09 1006.45 1006.85 1007.25 1007.61 1007.89 1008.13 1008.41 1008.65 1008.81 1008.93 1009.09 1009.41 1009.85 1010.33 1010.77 1011.09 1011.41 1011.73 1012.09 1012.53 1012.93 1013.29 1013.61 1013.85 1014.13 1014.41 1014.73 1015.05 1015.37 1015.65 1015.93 1016.25 1016.57 1016.97 1017.37 1017.69 1018.01 1018.37 1018.65 1018.85 1019.05 1019.21 1019.37 1019.53 1019.65 1019.73 1019.85 1020.01
1005.81 1005.57 1005.37 1005.25 1005.05 1004.85 1004.69 1004.53 1004.33 1004.01 1003.69 1003.53 1003.69 1003.93 1004.21 1004.49 1004.81 1005.13 1005.45 1005.77 1006.01 1006.29 1006.65 1007.09 1007.49 1007.81 1008.01 1008.25 1008.53 1008.73 1008.85 1008.97 1009.29 1009.77 1010.25 1010.69 1011.09 1011.45 1011.81 1012.21 1012.61 1013.01 1013.33 1013.61 1013.81 1014.09 1014.41 1014.73 1015.09 1015.37 1015.69 1015.97 1016.29 1016.65 1017.01 1017.37 1017.73 1018.09 1018.41 1018.69 1018.93 1019.09 1019.25 1019.37 1019.53 1019.65 1019.77 1019.89 1020.05
1005.45 1005.25 1005.09 1004.93 1004.77 1004.65 1004.53 1004.41 1004.25 1004.09 1003.81 1003.53 1003.53 1003.69 1003.97 1004.37 1004.73 1005.09 1005.37 1005.69 1005.97 1006.17 1006.45 1006.89 1007.29 1007.61 1007.81 1008.01 1008.25 1008.49 1008.65 1008.81 1009.21 1009.69 1010.17 1010.69 1011.09 1011.45 1011.81 1012.25 1012.69 1013.09 1013.37 1013.61 1013.81 1014.09 1014.41 1014.77 1015.09 1015.41 1015.73 1016.05 1016.37 1016.69 1017.09 1017.41 1017.81 1018.17 1018.49 1018.73 1018.97 1019.17 1019.33 1019.49 1019.61 1019.73 1019.85 1020.01 1020.13
1005.17 1004.97 1004.77 1004.57 1004.49 1004.41 1004.33 1004.25 1004.17 1004.09 1003.97 1003.77 1003.57 1003.61 1003.81 1004.13 1004.53 1004.89 1005.21 1005.53 1005.85 1006.13 1006.45 1006.85 1007.25 1007.61 1007.89 1008.09 1008.21 1008.29 1008.41 1008.69 1009.09 1009.61 1010.09 1010.57 1011.05 1011.45 1011.81 1012.21 1012.69 1013.13 1013.45 1013.61 1013.81 1014.09 1014.41 1014.77 1015.09 1015.41 1015.73 1016.09 1016.45 1016.81 1017.17 1017.53 1017.89 1018.21 1018.49 1018.77 1019.05 1019.25 1019.49 1019.65 1019.81 1019.93 1020.09 1020.17 1020.29
1004.89 1004.69 1004.53 1004.37 1004.25 1004.13 1004.09 1004.05 1004.01 1003.97 1003.97 1003.97 1003.89 1003.81 1003.85 1004.05 1004.37 1004.69 1005.09 1005.45 1005.81 1006.17 1006.53 1006.93 1007.33 1007.69 1008.05 1008.29 1008.41 1008.41 1008.41 1008.53 1008.97 1009.45 1009.97 1010.45 1010.93 1011.37 1011.77 1012.25 1012.73 1013.21 1013.49 1013.61 1013.81 1014.09 1014.41 1014.73 1015.05 1015.37 1015.69 1016.09 1016.49 1016.89 1017.25 1017.57 1017.93 1018.25 1018.53 1018.81 1019.09 1019.37 1019.61 1019.81 1019.97 1020.17 1020.29 1020.37 1020.45
1004.69 1004.53 1004.37 1004.21 1004.01 1003.85 1003.81 1003.81 1003.81 1003.81 1003.89 1004.01 1004.09 1004.09 1004.09 1004.13 1004.41 1004.69 1005.01 1005.37 1005.73 1006.09 1006.53 1006.93 1007.33 1007.69 1008.05 1008.37 1008.53 1008.53 1008.49 1008.49 1008.81 1009.33 1009.85 1010.37 1010.81 1011.25 1011.69 1012.25 1012.81 1013.25 1013.53 1013.65 1013.81 1014.09 1014.41 1014.69 1014.97 1015.25 1015.57 1015.97 1016.41 1016.85 1017.25 1017.61 1017.97 1018.33 1018.65 1018.93 1019.25 1019.53 1019.77 1020.01 1020.25 1020.37 1020.45 1020.53 1020.61
1004.53 1004.33 1004.13 1003.97 1003.73 1003.61 1003.53 1003.53 1003.53 1003.57 1003.69 1003.85 1004.01 1004.13 1004.25 1004.33 1004.53 1004.77 1005.01 1005.29 1005.61 1005.97 1006.41 1006.81 1007.13 1007.53 1007.89 1008.29 1008.65 1008.81 1008.77 1008.73 1008.89 1009.29 1009.81 1010.29 1010.69 1011.09 1011.65 1012.21 1012.77 1013.25 1013.53 1013.65 1013.81 1014.09 1014.41 1014.69 1014.93 1015.17 1015.45 1015.81 1016.25 1016.69 1017.13 1017.57 1018.01 1018.41 1018.77 1019.09 1019.41 1019.69 1019.97 1020.17 1020.33 1020.49 1020.57 1020.69 1020.73
1004.37 1004.09 1003.85 1003.65 1003.45 1003.37 1003.29 1003.29 1003.25 1003.33 1003.45 1003.65 1003.81 1004.01 1004.17 1004.41 1004.57 1004.81 1004.97 1005.25 1005.49 1005.81 1006.17 1006.57 1006.97 1007.33 1007.81 1008.25 1008.69 1008.97 1009.09 1009.09 1009.17 1009.41 1009.81 1010.25 1010.69 1011.09 1011.53 1012.13 1012.69 1013.21 1013.53 1013.73 1013.89 1014.09 1014.41 1014.69 1014.93 1015.09 1015.37 1015.69 1016.09 1016.57 1017.09 1017.53 1017.97 1018.41 1018.81 1019.21 1019.53 1019.85 1020.09 1020.25 1020.37 1020.49 1020.61 1020.73 1020.81
1004.21 1003.97 1003.69 1003.41 1003.21 1003.09 1003.01 1002.97 1002.97 1003.05 1003.17 1003.37 1003.57 1003.73 1003.93 1004.13 1004.41 1004.69 1004.93 1005.21 1005.41 1005.69 1006.01 1006.41 1006.81 1007.29 1007.77 1008.25 1008.69 1009.01 1009.25 1009.37 1009.53 1009.69 1009.97 1010.41 1010.81 1011.17 1011.65 1012.17 1012.69 1013.17 1013.53 1013.81 1013.97 1014.21 1014.49 1014.77 1014.97 1015.13 1015.37 1015.61 1016.01 1016.49 1016.97 1017.49 1017.97 1018.41 1018.81 1019.21 1019.53 1019.81 1020.09 1020.25 1020.37 1020.41 1020.53 1020.69 1020.81
1003.97 1003.73 1003.49 1003.21 1002.97 1002.77 1002.65 1002.61 1002.61 1002.69 1002.81 1003.01 1003.21 1003.41 1003.61 1003.81 1004.13 1004.41 1004.73 1005.09 1005.37 1005.69 1006.05 1006.45 1006.89 1007.33 1007.81 1008.25 1008.61 1008.93 1009.17 1009.41 1009.69 1009.93 1010.21 1010.61 1010.97 1011.37 1011.81 1012.29 1012.69 1013.17 1013.53 1013.81 1014.05 1014.25 1014.53 1014.81 1014.97 1015.09 1015.25 1015.57 1015.97 1016.41 1016.89 1017.37 1017.81 1018.29 1018.69 1019.05 1019.37 1019.65 1019.89 1020.09 1020.25 1020.41 1020.45 1020.57 1020.73
Thickness
5522 5523 5524 5524 5525 5525 5524 5523 5523 5522 5522 5522 5521 5520 5521 5521 5520 5520 5519 5520 5521 5521 5521 5521 5521 5520 5521 5522 5522 5522 5523 5522 5522 5521 5518 5514 5511 5510 5510 5509 5505 5496 5488 5487 5490 5493 5498 5500 5502 5501 5500 5498 5497 5494 5492 5490 5488 5484 5481 5478 5475 5474 5474 5474 5474 5473 5473 5472 5471
5517 5518 5518 5519 5519 5521 5522 5521 5521 5520 5521 5520 5519 5517 5516 5514 5513 5512 5511 5511 5510 5509 5509 5509 5510 5510 5510 5511 5511 5512 5512 5514 5515 5515 5513 5509 5506 5502 5501 5501 5499 5493 5485 5481 5482 5485 5489 5492 5494 5494 5493 5492 5490 5487 5485 5483 5482 5479 5476 5473 5471 5470 5470 5470 5468 5467 5467 5466 5465
5511 5512 5513 5514 5515 5516 5517 5518 5518 5519 5519 5519 5518 5516 5514 5514 5513 5511 5508 5506 5503 5501 5500 5499 5498 5498 5499 5500 5500 5501 5501 5503 5505 5508 5508 5505 5500 5494 5490 5491 5493 5490 5483 5476 5475 5476 5479 5482 5486 5487 5486 5485 5483 5479 5476 5474 5474 5473 5471 5468 5467 5466 5465 5464 5462 5461 5460 5461 5460
5504 5506 5508 5510 5511 5511 5512 5512 5512 5513 5514 5514 5515 5514 5513 5512 5511 5510 5508 5506 5502 5499 5495 5492 5489 5489 5489 5490 5491 5491 5491 5492 5495 5499 5501 5501 5496 5491 5485 5484 5486 5485 5479 5474 5471 5469 5470 5473 5477 5478 5478 5477 5475 5472 5469 5467 5466 5466 5465 5463 5463 5462 5461 5458 5457 5456 5456 5456 5456
5496 5499 5501 5505 5506 5507 5506 5506 5507 5508 5508 5508 5509 5509 5508 5507 5507 5507 5506 5505 5503 5500 5496 5492 5487 5485 5484 5484 5484 5484 5485 5487 5489 5492 5493 5492 5489 5485 5481 5479 5479 5478 5475 5471 5467 5464 5463 5465 5467 5468 5469 5468 5466 5464 5462 5460 5460 5459 5458 5457 5456 5455 5454 5453 5452 5452 5452 5452 5451
5490 5492 5494 5498 5500 5501 5501 5502 5503 5503 5503 5503 5504 5504 5503 5502 5500 5501 5500 5499 5497 5495 5493 5491 5487 5484 5481 5479 5479 5478 5479 5480 5480 5479 5479 5477 5476 5474 5472 5470 5469 5470 5469 5466 5462 5459 5459 5460 5461 5462 5463 5462 5461 5459 5457 5455 5454 5452 5450 5450 5449 5449 5449 5448 5448 5448 5448 5448 5448
5483 5486 5488 5491 5493 5495 5497 5497 5497 5498 5498 5498 5498 5499 5498 5496 5495 5494 5493 5492 5490 5488 5487 5486 5484 5482 5478 5475 5472 5471 5471 5471 5471 5471 5471 5469 5467 5465 5464 5462 5462 5462 5462 5460 5459 5457 5458 5458 5459 5460 5461 5460 5458 5456 5454 5451 5449 5447 5445 5444 5444 5444 5444 5444 5444 5443 5444 5444 5445
5477 5479 5482 5484 5487 5489 5491 5493 5493 5493 5492 5492 5493 5493 5493 5491 5489 5488 5487 5487 5487 5485 5482 5481 5480 5478 5476 5473 5470 5467 5466 5467 5468 5468 5466 5464 5461 5461 5460 5460 5460 5461 5461 5460 5459 5458 5457 5458 5458 5458 5457 5456 5453 5450 5448 5447 5445 5443 5442 5442 5441 5441 5441 5441 5441 5441 5441 5441 5441
5472 5474 5476 5478 5481 5484 5485 5487 5488 5488 5487 5487 5487 5488 5488 5486 5484 5483 5483 5483 5483 5483 5481 5480 5477 5475 5473 5471 5467 5466 5465 5464 5464 5463 5462 5460 5458 5457 5457 5457 5458 5458 5458 5458 5457 5455 5454 5454 5454 5453 5452 5450 5447 5444 5443 5442 5441 5440 5439 5439 5438 5438 5438 5438 5438 5438 5438 5438 5438
5468 5470 5471 5473 5475 5477 5479 5482 5483 5483 5482 5482 5482 5482 5482 5481 5479 5477 5477 5479 5479 5480 5480 5479 5477 5475 5471 5468 5465 5463 5462 5461 5460 5459 5457 5455 5453 5452 5452 5452 5452 5452 5451 5451 5450 5450 5450 5449 5448 5447 5447 5445 5443 5441 5439 5439 5438 5438 5437 5436 5437 5436 5437 5436 5435 5435 5435 5435 5434
5462 5465 5467 5469 5470 5472 5474 5476 5477 5477 5477 5477 5476 5476 5476 5476 5473 5471 5471 5472 5474 5475 5476 5476 5476 5474 5471 5468 5464 5461 5459 5458 5457 5454 5451 5449 5448 5447 5447 5447 5446 5445 5445 5444 5444 5443 5444 5443 5443 5442 5441 5440 5439 5438 5437 5436 5436 5436 5435 5435 5435 5434 5434 5432 5433 5432 5432 5432 5430
5456 5460 5462 5465 5466 5467 5469 5471 5472 5472 5472 5472 5471 5472 5471 5471 5470 5467 5465 5466 5467 5469 5470 5472 5473 5472 5470 5467 5463 5460 5458 5456 5453 5449 5446 5444 5444 5443 5443 5443 5443 5442 5441 5440 5439 5439 5438 5438 5438 5437 5437 5437 5436 5435 5435 5435 5434 5434 5433 5433 5432 5431 5430 5429 5429 5429 5428 5428 5427
5449 5454 5458 5460 5461 5463 5465 5466 5468 5469 5468 5468 5468 5468 5468 5467 5466 5464 5462 5460 5461 5463 5464 5467 5468 5468 5467 5465 5463 5459 5457 5456 5452 5448 5444 5442 5442 5442 5441 5441 5440 5440 5438 5438 5436 5437 5436 5435 5435 5435 5434 5434 5434 5433 5433 5433 5432 5431 5430 5428 5428 5427 5426 5426 5426 5426 5424 5423 5422
5442 5447 5452 5455 5457 5459 5460 5461 5463 5465 5465 5465 5464 5464 5464 5463 5462 5460 5458 5457 5457 5458 5459 5461 5462 5463 5463 5462 5460 5457 5455 5453 5453 5450 5446 5442 5441 5440 5440 5439 5438 5437 5436 5434 5434 5433 5432 5432 5432 5432 5433 5432 5431 5430 5430 5429 5429 5428 5426 5425 5424 5424 5423 5422 5422 5422 5421 5419 5418
5434 5440 5446 5450 5453 5454 5455 5457 5459 5461 5462 5462 5461 5461 5461 5459 5459 5457 5455 5453 5453 5453 5455 5456 5457 5458 5457 5457 5456 5454 5451 5449 5449 5448 5447 5444 5441 5439 5438 5437 5435 5434 5433 5431 5430 5430 5430 5430 5430 5430 5430 5429 5429 5427 5427 5426 5425 5424 5423 5422 5421 5420 5419 5419 5418 5417 5417 5415 5414
5425 5431 5438 5443 5448 5450 5451 5452 5455 5458 5458 5459 5458 5458 5457 5457 5456 5454 5452 5449 5449 5449 5450 5452 5453 5452 5451 5451 5450 5449 5448 5446 5445 5445 5445 5444 5442 5439 5437 5435 5433 5432 5430 5429 5429 5428 5428 5427 5427 5426 5427 5426 5425 5424 5423 5422 5421 5420 5419 5419 5418 5417 5416 5415 5414 5414 5413 5411 5410
5415 5422 5428 5434 5441 5444 5447 5448 5451 5453 5455 5455 5455 5455 5455 5454 5453 5452 5450 5448 5446 5446 5446 5448 5449 5449 5447 5446 5445 5444 5443 5442 5442 5441 5442 5442 5441 5440 5437 5434 5432 5430 5428 5427 5426 5425 5425 5423 5423 5423 5422 5422 5421 5421 5420 5419 5418 5417 5416 5415 5414 5413 5412 5412 5411 5409 5409 5407 5406
5407 5412 5419 5426 5433 5438 5441 5443 5446 5448 5450 5452 5451 5451 5452 5452 5451 5450 5448 5446 5446 5444 5443 5444 5445 5446 5445 5443 5442 5441 5440 5440 5439 5439 5438 5439 5439 5437 5436 5433 5431 5428 5426 5424 5423 5422 5421 5419 5419 5419 5417 5417 5417 5416 5416 5415 5414 5413 5412 5411 5410 5409 5408 5407 5407 5405 5405 5403 5401
5399 5404 5410 5418 5425 5432 5435 5439 5441 5443 5446 5447 5447 5448 5449 5449 5449 5448 5446 5445 5445 5443 5442 5441 5441 5442 5442 5441 5440 5438 5437 5437 5437 5436 5435 5435 5435 5434 5433 5432 5429 5426 5424 5421 5419 5418 5417 5416 5415 5414 5414 5413 5412 5412 5411 5410 5410 5408 5407 5406 5405 5404 5403 5403 5402 5401 5400 5399 5398
5391 5396 5402 5410 5417 5425 5431 5435 5437 5439 5441 5443 5444 5445 5447 5447 5446 5445 5444 5444 5443 5443 5441 5439 5439 5439 5440 5439 5438 5437 5435 5434 5433 5432 5432 5431 5431 5430 5430 5428 5426 5424 5421 5419 5417 5415 5414 5412 5412 5411 5410 5409 5408 5407 5407 5406 5405 5404 5402 5401 5400 5399 5399 5398 5397 5396 5395 5395 5393
5386 5390 5396 5403 5410 5417 5424 5429 5432 5435 5437 5439 5441 5443 5445 5445 5443 5443 5443 5442 5442 5442 5441 5438 5437 5437 5436 5437 5436 5434 5433 5432 5430 5429 5428 5427 5427 5426 5425 5424 5423 5421 5419 5417 5414 5412 5411 5410 5409 5408 5407 5406 5405 5405 5403 5402 5401 5399 5398 5397 5396 5395 5394 5394 5393 5392 5392 5391 5390
5381 5385 5391 5397 5404 5410 5416 5422 5427 5430 5432 5435 5437 5439 5442 5442 5442 5441 5440 5440 5440 5440 5439 5438 5436 5435 5435 5434 5434 5433 5431 5429 5427 5425 5424 5423 5423 5422 5421 5420 5418 5417 5415 5414 5412 5411 5409 5408 5406 5405 5404 5403 5403 5402 5401 5400 5399 5397 5396 5394 5393 5392 5391 5391 5390 5389 5388 5387 5386
5378 5382 5387 5393 5400 5406 5411 5416 5421 5424 5426 5429 5432 5435 5437 5438 5438 5438 5437 5437 5438 5438 5438 5436 5435 5435 5434 5434 5432 5432 5429 5426 5424 5422 5421 5421 5420 5418 5417 5415 5415 5413 5412 5411 5409 5408 5407 5405 5404 5403 5402 5401 5401 5399 5398 5397 5396 5395 5393 5392 5390 5389 5388 5387 5386 5385 5384 5383 5382
5376 5379 5384 5389 5397 5402 5407 5411 5415 5418 5421 5424 5426 5429 5431 5433 5434 5434 5434 5434 5436 5436 5436 5435 5434 5433 5433 5433 5432 5429 5426 5424 5421 5419 5418 5418 5417 5415 5413 5411 5410 5409 5408 5406 5406 5405 5404 5403 5402 5401 5400 5399 5398 5396 5395 5394 5392 5392 5390 5388 5387 5386 5385 5383 5382 5381 5380 5379 5378
5374 5378 5382 5386 5392 5399 5404 5408 5411 5414 5417 5419 5422 5424 5426 5429 5431 5432 5433 5433 5434 5435 5433 5432 5431 5431 5431 5431 5428 5425 5423 5422 5419 5418 5416 5415 5414 5412 5410 5409 5407 5406 5405 5403 5403 5402 5402 5401 5401 5399 5397 5396 5394 5393 5391 5390 5388 5388 5386 5385 5383 5382 5381 5379 5377 5376 5376 5374 5373
5373 5377 5381 5385 5390 5396 5402 5405 5409 5411 5414 5416 5418 5420 5422 5424 5426 5428 5430 5431 5431 5431 5430 5429 5429 5430 5430 5428 5424 5421 5420 5419 5418 5416 5416 5414 5412 5410 5408 5406 5404 5402 5401 5400 5399 5398 5398 5398 5398 5397 5396 5394 5391 5389 5387 5385 5384 5383 5381 5380 5379 5378 5377 5375 5374 5372 5371 5371 5370
5372 5376 5379 5383 5387 5392 5399 5404 5407 5410 5413 5414 5416 5418 5420 5421 5423 5424 5426 5427 5428 5428 5427 5427 5428 5429 5428 5425 5422 5419 5418 5417 5416 5415 5414 5413 5411 5408 5406 5405 5402 5400 5398 5397 5396 5395 5395 5395 5395 5394 5392 5391 5389 5387 5384 5382 5380 5378 5378 5376 5375 5374 5374 5373 5371 5369 5368 5367 5367
5371 5375 5378 5381 5385 5390 5395 5402 5406 5409 5411 5412 5414 5416 5418 5419 5420 5422 5423 5424 5425 5424 5425 5426 5428 5428 5426 5422 5419 5417 5416 5415 5414 5413 5412 5410 5409 5407 5405 5403 5400 5398 5396 5395 5394 5393 5393 5392 5391 5391 5389 5388 5386 5383 5381 5379 5377 5375 5374 5373 5372 5371 5370 5369 5368 5367 5365 5365 5364
5370 5373 5377 5380 5383 5387 5392 5398 5403 5407 5409 5411 5412 5414 5415 5417 5419 5420 5421 5422 5423 5423 5425 5426 5427 5426 5424 5420 5417 5415 5414 5414 5412 5411 5409 5407 5405 5404 5403 5402 5399 5396 5393 5392 5392 5391 5390 5390 5389 5387 5386 5385 5383 5380 5377 5376 5374 5373 5371 5370 5369 5368 5367 5366 5365 5364 5362 5362 5361
5369 5372 5376 5378 5382 5385 5390 5395 5401 5406 5409 5410 5411 5412 5414 5415 5416 5417 5418 5420 5422 5423 5425 5426 5427 5426 5424 5419 5415 5413 5412 5411 5410 5408 5406 5405 5403 5402 5401 5399 5396 5393 5391 5390 5389 5389 5388 5387 5386 5384 5383 5381 5380 5378 5375 5374 5371 5370 5368 5366 5365 5365 5363 5363 5362 5361 5360 5359 5359
5368 5371 5375 5378 5381 5384 5387 5392 5398 5403 5407 5409 5410 5411 5412 5413 5414 5416 5417 5419 5421 5423 5424 5426 5426 5424 5422 5418 5414 5411 5409 5409 5408 5407 5404 5402 5401 5399 5398 5396 5394 5391 5389 5388 5386 5387 5385 5384 5383 5382 5380 5379 5377 5375 5373 5371 5369 5367 5365 5363 5363 5361 5360 5360 5359 5358 5358 5357 5357
5368 5371 5374 5377 5380 5382 5385 5389 5394 5399 5404 5406 5407 5409 5411 5413 5414 5415 5416 5418 5419 5421 5422 5423 5422 5421 5419 5415 5412 5410 5408 5407 5406 5405 5402 5400 5398 5396 5395 5393 5391 5388 5386 5385 5384 5383 5382 5381 5380 5378 5377 5375 5374 5372 5370 5368 5366 5364 5362 5360 5359 5358 5358 5357 5356 5356 5355 5355 5355
5369 5371 5374 5377 5380 5382 5385 5388 5391 5395 5400 5404 5405 5406 5409 5411 5412 5413 5414 5415 5416 5417 5419 5419 5418 5417 5415 5413 5410 5408 5406 5406 5405 5402 5399 5397 5395 5393 5392 5390 5388 5385 5383 5382 5381 5380 5379 5378 5376 5375 5373 5372 5370 5369 5367 5365 5362 5360 5358 5357 5355 5355 5354 5354 5353 5352 5352 5352 5351
5369 5371 5374 5377 5379 5382 5385 5387 5388 5392 5396 5401 5404 5405 5406 5408 5409 5410 5410 5411 5412 5414 5415 5416 5415 5413 5412 5410 5408 5406 5404 5403 5402 5400 5397 5395 5393 5391 5389 5387 5385 5382 5381 5380 5379 5378 5376 5374 5373 5371 5370 5369 5367 5365 5363 5361 5359 5357 5355 5354 5352 5351 5351 5350 5349 5349 5348 5347 5346
5369 5371 5375 5377 5379 5382 5384 5386 5388 5390 5392 5397 5401 5403 5405 5405 5406 5406 5407 5408 5409 5410 5411 5412 5410 5409 5407 5405 5404 5403 5403 5402 5400 5397 5395 5393 5391 5389 5387 5385 5382 5380 5378 5377 5376 5375 5373 5372 5370 5369 5367 5366 5364 5362 5360 5358 5356 5354 5352 5351 5349 5348 5346 5346 5345 5344 5343 5343 5342
5368 5371 5374 5376 5379 5381 5383 5386 5387 5389 5390 5392 5396 5399 5401 5403 5403 5405 5406 5406 5407 5407 5407 5406 5405 5404 5402 5400 5399 5399 5400 5400 5398 5396 5393 5392 5389 5387 5385 5383 5380 5377 5375 5375 5374 5373 5371 5369 5368 5367 5365 5364 5361 5359 5357 5355 5353 5351 5350 5348 5346 5344 5343 5341 5340 5339 5339 5338 5337
5368 5371 5373 5376 5379 5381 5383 5385 5387 5388 5389 5390 5392 5394 5396 5399 5400 5402 5403 5404 5404 5403 5402 5402 5401 5400 5399 5398 5396 5396 5397 5397 5396 5394 5392 5389 5387 5385 5383 5380 5377 5374 5373 5372 5372 5370 5368 5367 5366 5365 5364 5362 5359 5357 5355 5352 5351 5348 5347 5344 5342 5341 5339 5337 5335 5335 5334 5334 5334
5367 5370 5373 5376 5379 5382 5383 5385 5386 5388 5389 5390 5390 5391 5392 5394 5396 5398 5400 5401 5401 5400 5398 5398 5398 5399 5398 5396 5394 5392 5393 5393 5393 5391 5389 5387 5385 5384 5381 5378 5375 5372 5370 5369 5368 5367 5366 5365 5364 5363 5363 5360 5358 5356 5353 5351 5348 5345 5343 5341 5338 5336 5335 5333 5332 5331 5331 5331 5331
5367 5371 5373 5377 5380 5383 5385 5386 5387 5388 5389 5389 5390 5390 5390 5391 5393 5395 5397 5398 5399 5398 5397 5396 5397 5397 5396 5394 5391 5389 5388 5388 5388 5388 5387 5385 5383 5382 5379 5376 5373 5370 5368 5366 5365 5364 5363 5362 5362 5361 5361 5359 5357 5354 5352 5349 5346 5342 5340 5337 5335 5333 5331 5330 5329 5329 5329 5328 5328
5367 5370 5373 5377 5380 5383 5385 5387 5388 5389 5389 5389 5389 5390 5391 5391 5392 5393 5394 5395 5396 5395 5394 5394 5393 5393 5392 5390 5388 5385 5384 5383 5383 5383 5383 5382 5381 5378 5377 5374 5371 5367 5364 5362 5362 5360 5360 5359 5359 5359 5358 5357 5355 5352 5350 5347 5344 5341 5338 5335 5333 5331 5329 5328 5328 5328 5327 5327 5325
5366 5370 5373 5377 5380 5383 5386 5388 5389 5390 5390 5390 5390 5391 5392 5392 5392 5393 5393 5393 5393 5391 5390 5389 5388 5388 5387 5386 5385 5383 5382 5381 5380 5379 5379 5378 5376 5374 5372 5370 5367 5364 5361 5359 5358 5357 5356 5356 5356 5357 5357 5356 5353 5351 5348 5345 5342 5339 5337 5334 5333 5331 5329 5327 5327 5326 5326 5325 5324